{"data":{"norad_id":51869,"intl_designator":"2022-022T","name":"STARLINK-3588","alt_names":[],"object_type":"PAYLOAD","status":"ACTIVE","operator":null,"country":"US","launch_date":"2022-03-03","launch_site_code":"AFETR","launch_vehicle":null,"mission":null,"orbit_class":"UNKNOWN","rcs_meters":null,"size_class":null,"mass_kg":null,"dimensions":null,"purposes":["comms"],"wikipedia_slug":null,"has_3d_model":false,"image_url":null,"decayed_at":null,"tle_current":{"epoch":"2026-09-19T12:07:35.042880Z","epoch_age_seconds":137836,"freshness":"FRESH","line1":"1 51869U 22022T   26262.50526670  .00000711  00000+0  31282-4 0  9994","line2":"2 51869  53.1604 208.6034 0001297  87.3507 272.7645 15.35394573252515","mean_motion":15.35394573,"eccentricity":0.0001297,"inclination_deg":53.1604,"raan_deg":208.6034,"arg_perigee_deg":87.3507,"mean_anomaly_deg":272.7645,"bstar":3.1282e-5,"rev_number":25251,"period_min":93.786966902351,"perigee_km":458.86188168834,"apogee_km":460.63562925331,"semimajor_km":6837.8857554708,"source":"CELESTRAK","updated_at":"2026-09-20T09:00:39.947948Z"}}}